This is the latest recevied weather packets stored in our database for station/object OK1VOF-13. If no packets are shown the sender has not sent any weather packets the latest 10 day(s).
| Time | Temp. | Humidity | Pressure | Rain* | Wind** | Luminosity | Snow |
|---|---|---|---|---|---|---|---|
| 1787938551 | 30° C | 33% | 1014 hPa | 0 mm | - | - | - |
| 1787937661 | 31.11° C | 32% | 1014.1 hPa | 0 mm | - | - | - |
| 1787937363 | 31.67° C | 31% | 1014.3 hPa | 0 mm | - | - | - |
| 1787937064 | 31.67° C | 31% | 1014.4 hPa | 0 mm | - | - | - |
| 1787936765 | 32.22° C | 31% | 1014.3 hPa | 0 mm | - | - | - |
| 1787936167 | 33.33° C | 29% | 1014.3 hPa | 0 mm | - | - | - |
| 1787935869 | 33.89° C | 29% | 1014.2 hPa | 0 mm | - | - | - |
| 1787935563 | 34.44° C | 28% | 1014.2 hPa | 0 mm | - | - | - |
| 1787935271 | 34.44° C | 28% | 1014 hPa | 0 mm | - | - | - |
| 1787934972 | 35° C | 28% | 1014.2 hPa | 0 mm | - | - | - |
| 1787933180 | 36.11° C | 28% | 1014.7 hPa | 0 mm | - | - | - |
| 1787932582 | 36.11° C | 28% | 1014.7 hPa | 0 mm | - | - | - |
| 1787931380 | 35.56° C | 28% | 1014.9 hPa | 0 mm | - | - | - |
| 1787930782 | 35° C | 29% | 1014.9 hPa | 0 mm | - | - | - |
| 1787930191 | 34.44° C | 29% | 1014.5 hPa | 0 mm | - | - | - |
| 1787928990 | 34.44° C | 29% | 1014.4 hPa | 0 mm | - | - | - |
| 1787927502 | 33.89° C | 30% | 1014.5 hPa | 0 mm | - | - | - |
| 1787927203 | 33.89° C | 31% | 1014.5 hPa | 0 mm | - | - | - |
| 1787926606 | 33.33° C | 31% | 1014.7 hPa | 0 mm | - | - | - |
| 1787926307 | 33.33° C | 31% | 1014.7 hPa | 0 mm | - | - | - |
| 1787926002 | 33.33° C | 32% | 1014.7 hPa | 0 mm | - | - | - |
| 1787925411 | 32.78° C | 32% | 1014.7 hPa | 0 mm | - | - | - |
| 1787925105 | 32.78° C | 32% | 1014.7 hPa | 0 mm | - | - | - |
| 1787924806 | 32.78° C | 33% | 1014.9 hPa | 0 mm | - | - | - |
| 1787924514 | 32.22° C | 33% | 1015 hPa | 0 mm | - | - | - |
* Rain latest hour (hover to see other rain measurements)
** Current wind speed in m/s (hover to see current wind gust speed)